RH
35 33 32 32 34 36 58 64 75 65 59 56 51 52 50 50 49 50 52 52 52 52 51 52 53 52 49 50 47 50 49 43
38 39 37 37 43 37 46 56 59 62 49 47 44 48 45 45 46 50 54 53 53 54 58 59 55 51 53 52 49 43 42 40
44 47 46 48 52 54 56 56 50 44 44 45 44 43 44 52 54 58 60 61 61 62 62 58 52 54 52 52 52 54 45 53
42 43 44 42 42 44 43 43 42 43 42 48 48 45 48 52 53 55 57 58 62 62 60 55 55 46 47 50 50 50 78 86
47 48 48 48 50 51 52 53 52 52 53 54 54 56 57 59 62 64 62 62 62 62 60 56 36 37 38 52 85 91 91 89
45 47 47 53 55 53 50 54 57 58 57 57 59 64 65 67 67 68 70 70 68 62 40 45 60 76 90 93 92 75 74 76
42 45 49 52 54 55 57 57 57 59 61 64 66 68 71 73 73 74 72 70 51 51 69 81 82 80 82 83 79 72 70 88
43 48 50 51 52 54 57 58 62 62 59 60 66 71 74 75 74 71 70 53 62 61 64 67 78 75 75 69 90 81 95 86
39 40 42 46 50 51 53 55 57 61 60 62 62 64 69 70 68 66 61 68 73 78 67 70 94 88 96 100 100 94 88 80
40 44 47 50 51 54 58 61 60 59 60 62 63 64 63 62 60 61 68 76 79 66 53 74 87 87 82 78 74 74 86 80
44 46 49 52 54 56 57 58 58 57 57 58 60 61 62 56 57 62 72 74 65 51 66 73 80 76 74 76 80 78 74 66
51 54 55 55 56 56 57 56 53 52 56 59 56 59 48 53 57 60 62 64 44 71 73 68 64 58 55 55 58 60 62 76
51 55 59 58 58 58 56 49 48 51 51 55 60 53 52 55 57 58 60 56 52 67 68 65 56 52 54 56 60 60 62 72
53 57 59 56 56 45 44 42 43 44 49 56 54 56 54 57 57 57 63 58 63 68 64 52 52 55 57 59 61 64 67 65
61 61 54 54 47 45 44 44 43 42 44 54 59 63 74 68 70 67 80 62 72 62 51 51 52 57 60 64 67 65 63 65
63 60 61 53 48 46 42 38 37 40 50 52 55 63 68 79 81 74 78 65 66 53 53 53 58 61 62 63 66 69 70 73
68 62 56 52 43 40 38 38 40 42 40 41 48 64 75 80 80 96 97 78 62 56 56 57 62 64 65 69 75 74 76 76
55 50 49 42 36 37 41 41 42 41 40 42 53 54 60 77 92 99 97 88 62 61 59 63 67 69 75 85 84 75 82 86
50 45 35 34 38 38 40 42 40 39 40 42 48 56 70 66 64 98 96 92 70 62 66 70 74 80 81 74 86 92 90 96
Wind_Speed
24 22 18 13 11 8 8 6 10 9 9 6 5 5 4 4 4 7 11 16 20 21 27 25 27 28 28 29 30 30 32 35
20 18 15 10 8 6 7 8 6 4 4 5 5 5 3 5 9 11 11 12 17 24 24 21 24 29 26 29 32 33 32 30
19 15 13 11 8 6 6 3 1 3 3 3 4 5 3 4 6 6 9 12 15 18 21 26 27 25 29 30 31 34 36 27
16 15 14 10 8 5 3 4 4 1 2 3 5 8 10 12 14 19 21 23 23 23 27 25 25 31 31 32 33 30 26 28
16 11 9 9 9 7 8 8 12 15 16 17 16 16 15 14 15 18 21 24 25 26 26 29 34 29 29 27 21 22 25 26
14 8 5 6 6 7 6 6 12 14 16 17 17 12 12 13 16 20 22 22 25 27 29 27 26 22 20 22 21 25 28 30
7 6 6 5 5 7 5 2 5 11 7 5 9 12 15 18 22 26 28 30 30 27 21 23 23 26 26 27 28 29 29 27
14 15 10 7 4 2 1 7 8 10 15 18 16 16 19 20 22 25 29 29 24 26 27 30 29 25 26 27 25 27 24 26
6 4 2 4 2 4 9 13 14 15 14 15 18 20 19 20 22 26 27 21 22 22 32 28 23 25 24 22 24 27 26 28
11 8 8 3 3 6 9 7 7 11 14 13 13 15 20 23 26 26 24 19 23 32 32 21 23 27 28 27 26 26 23 22
13 9 6 5 8 10 12 13 15 13 13 14 16 20 22 23 23 24 20 23 33 29 23 19 23 27 26 23 22 20 21 21
11 8 8 10 13 14 16 17 16 12 14 19 26 25 23 22 24 26 29 31 34 21 21 22 22 24 23 23 23 23 23 20
9 9 7 11 17 19 18 13 13 18 24 26 27 28 23 24 26 29 32 29 27 18 19 24 25 24 23 22 22 24 23 19
6 7 12 21 20 16 15 16 23 28 28 30 26 26 29 28 29 31 28 25 24 19 20 23 24 24 24 25 25 24 23 26
8 14 20 16 16 16 19 22 23 27 32 24 25 31 28 30 30 23 25 26 21 18 18 20 24 24 24 23 24 28 32 34
18 19 16 17 16 18 20 22 27 26 26 31 35 31 30 26 29 42 26 19 14 16 17 20 22 23 25 28 31 33 36 38
17 15 15 18 21 22 24 23 17 20 27 31 30 31 24 30 33 19 15 15 11 16 19 19 21 24 26 28 30 35 36 35
15 16 17 19 23 22 13 17 23 27 27 28 28 34 35 28 25 26 12 9 11 15 19 18 19 23 26 29 34 31 28 28
16 17 20 21 15 16 21 25 28 27 28 29 32 33 31 32 30 22 10 13 11 15 15 17 23 24 28 30 26 26 28 27
Wind_Direction
121 128 136 135 138 124 136 152 156 143 167 169 212 237 246 253 266 289 297 297 302 310 310 299 305 312 307 299 301 298 297 298
103 107 111 111 106 149 183 230 253 191 176 203 185 191 262 297 335 326 318 308 298 297 297 307 312 311 310 309 307 308 308 305
91 95 100 110 111 143 191 237 301 152 174 213 254 272 305 273 268 285 320 307 305 305 308 311 306 299 304 304 305 306 305 307
92 90 97 112 115 99 51 2 357 22 263 243 262 274 275 267 272 293 297 297 300 306 307 304 304 310 307 305 303 301 296 295
92 85 91 100 98 89 79 26 354 343 338 334 330 327 323 315 301 293 293 296 299 303 303 306 308 311 309 310 310 307 306 304
100 83 53 59 55 39 30 58 18 6 352 341 339 324 310 296 292 295 303 304 309 310 320 324 324 321 317 312 308 310 307 306
115 137 129 86 46 22 11 326 319 3 6 325 299 298 299 298 302 307 313 319 325 334 339 329 322 317 312 310 307 305 302 302
125 131 136 133 97 61 296 304 303 292 305 313 316 313 308 309 310 318 322 326 331 336 334 327 323 322 321 321 312 313 307 320
176 179 218 204 238 302 301 295 289 298 296 299 306 310 313 319 325 326 324 323 325 324 332 326 322 317 318 314 317 317 318 316
120 117 118 102 19 340 315 298 297 293 299 308 312 322 327 327 327 317 319 318 318 323 327 318 319 322 322 323 326 322 324 326
93 74 49 14 347 334 324 321 316 305 297 298 308 314 314 319 313 310 307 309 317 323 331 326 326 327 327 325 325 328 325 327
61 50 12 337 325 330 322 320 312 306 307 309 310 304 309 303 299 297 300 307 321 319 326 327 320 319 323 325 326 327 321 315
25 5 358 336 330 326 327 315 321 325 320 310 302 307 302 295 290 293 297 309 320 307 310 312 317 318 321 322 320 314 310 302
1 332 325 330 334 343 331 320 324 325 319 308 309 304 309 297 295 294 293 310 307 299 306 311 313 315 317 315 312 304 303 306
357 337 346 350 343 336 334 334 331 323 319 309 306 302 299 293 287 282 292 310 292 299 306 309 312 312 311 310 305 303 307 309
347 348 350 344 337 331 329 327 328 325 323 321 321 317 299 286 280 290 274 288 287 287 298 312 310 308 304 303 302 303 308 309
351 345 337 339 334 327 323 327 329 336 334 341 337 322 316 311 308 281 283 274 289 301 316 318 311 307 303 303 307 310 311 311
356 352 339 327 323 323 328 325 327 336 338 336 329 327 333 330 303 286 287 294 300 320 320 313 308 308 309 313 314 316 316 317
339 337 333 331 331 321 325 331 335 334 334 323 322 329 327 328 324 295 256 273 324 324 311 310 313 310 314 320 319 317 318 315